iso_date,Year,Hour,Min,DOY,POS_DOY,Lat,Lon,BP,Ts,Ta,has_bp,has_ts,has_ta,BuoyID,Buoy_Type,Buoy_Owner,Logistics,Hemisphere
2022-10-11T19:48:43Z,2022,19,48,284.8255,284.8255,57.73664,-152.50274,-999.0,9.65,-999.0,no,yes,no,300534062029960,IT,USIABP,SIZRS,North
2022-10-11T20:00:23Z,2022,20,0,284.8336,284.8336,57.73661,-152.50313,-999.0,10.45,-999.0,no,yes,no,300534062029960,IT,USIABP,SIZRS,North
2022-10-12T23:00:14Z,2022,23,0,285.9585,285.9585,76.19314,-149.81625,-999.0,15.75,-999.0,no,yes,no,300534062029960,IT,USIABP,SIZRS,North
2022-10-13T00:00:25Z,2022,0,0,286.0003,286.0003,76.066,-149.76516,-999.0,11.45,-999.0,no,yes,no,300534062029960,IT,USIABP,SIZRS,North
2022-10-13T01:00:28Z,2022,1,0,286.042,286.042,76.06696,-149.7087,-999.0,7.25,-999.0,no,yes,no,300534062029960,IT,USIABP,SIZRS,North
2022-10-13T02:00:57Z,2022,2,0,286.084,286.084,76.06369,-149.65666,-999.0,4.4,-999.0,no,yes,no,300534062029960,IT,USIABP,SIZRS,North
2022-10-13T03:00:25Z,2022,3,0,286.1253,286.1253,76.05748,-149.61767,-999.0,2.5,-999.0,no,yes,no,300534062029960,IT,USIABP,SIZRS,North
2022-10-13T04:00:28Z,2022,4,0,286.167,286.167,76.05256,-149.60632,-999.0,1.45,-999.0,no,yes,no,300534062029960,IT,USIABP,SIZRS,North
2022-10-13T05:00:57Z,2022,5,0,286.209,286.209,76.04861,-149.60127,-999.0,0.7,-999.0,no,yes,no,300534062029960,IT,USIABP,SIZRS,North
2022-10-13T06:00:25Z,2022,6,0,286.2503,286.2503,76.04966,-149.60561,-999.0,0.05,-999.0,no,yes,no,300534062029960,IT,USIABP,SIZRS,North
2022-10-13T07:00:28Z,2022,7,0,286.292,286.292,76.05791,-149.60902,-999.0,-0.4,-999.0,no,yes,no,300534062029960,IT,USIABP,SIZRS,North
2022-10-13T08:00:57Z,2022,8,0,286.334,286.334,76.07087,-149.58247,-999.0,-0.65,-999.0,no,yes,no,300534062029960,IT,USIABP,SIZRS,North
2022-10-13T09:00:25Z,2022,9,0,286.3753,286.3753,76.07947,-149.52406,-999.0,-0.85,-999.0,no,yes,no,300534062029960,IT,USIABP,SIZRS,North
2022-10-13T10:00:28Z,2022,10,0,286.417,286.417,76.08369,-149.45463,-999.0,-1.15,-999.0,no,yes,no,300534062029960,IT,USIABP,SIZRS,North
2022-10-13T11:00:57Z,2022,11,0,286.459,286.459,76.08569,-149.37742,-999.0,-1.5,-999.0,no,yes,no,300534062029960,IT,USIABP,SIZRS,North
2022-10-13T12:00:25Z,2022,12,0,286.5003,286.5003,76.08339,-149.29504,-999.0,-1.7,-999.0,no,yes,no,300534062029960,IT,USIABP,SIZRS,North
2022-10-13T13:00:28Z,2022,13,0,286.542,286.542,76.07376,-149.23056,-999.0,-1.9,-999.0,no,yes,no,300534062029960,IT,USIABP,SIZRS,North
2022-10-13T14:00:57Z,2022,14,0,286.584,286.584,76.06237,-149.18515,-999.0,-2.25,-999.0,no,yes,no,300534062029960,IT,USIABP,SIZRS,North
2022-10-13T15:00:25Z,2022,15,0,286.6253,286.6253,76.04989,-149.15059,-999.0,-2.6,-999.0,no,yes,no,300534062029960,IT,USIABP,SIZRS,North
2022-10-13T16:00:28Z,2022,16,0,286.667,286.667,76.03784,-149.13306,-999.0,-2.9,-999.0,no,yes,no,300534062029960,IT,USIABP,SIZRS,North
2022-10-13T17:00:23Z,2022,17,0,286.7086,286.7086,76.02791,-149.13494,-999.0,-3.15,-999.0,no,yes,no,300534062029960,IT,USIABP,SIZRS,North
2022-10-13T18:00:51Z,2022,18,0,286.7506,286.7506,76.0239,-149.14303,-999.0,-3.55,-999.0,no,yes,no,300534062029960,IT,USIABP,SIZRS,North
2022-10-13T19:00:28Z,2022,19,0,286.792,286.792,76.02506,-149.14961,-999.0,-3.75,-999.0,no,yes,no,300534062029960,IT,USIABP,SIZRS,North
2022-10-13T20:00:23Z,2022,20,0,286.8336,286.8336,76.02982,-149.14207,-999.0,-3.85,-999.0,no,yes,no,300534062029960,IT,USIABP,SIZRS,North
2022-10-13T21:00:25Z,2022,21,0,286.8753,286.8753,76.03505,-149.10345,-999.0,-3.9,-999.0,no,yes,no,300534062029960,IT,USIABP,SIZRS,North
2022-10-13T22:00:54Z,2022,22,0,286.9173,286.9173,76.03873,-149.03793,-999.0,-3.95,-999.0,no,yes,no,300534062029960,IT,USIABP,SIZRS,North
2022-10-13T23:00:23Z,2022,23,0,286.9586,286.9586,76.03913,-148.95689,-999.0,-3.9,-999.0,no,yes,no,300534062029960,IT,USIABP,SIZRS,North
2022-10-14T00:00:25Z,2022,0,0,287.0003,287.0003,76.03501,-148.87142,-999.0,-4.0,-999.0,no,yes,no,300534062029960,IT,USIABP,SIZRS,North
2022-10-14T01:00:28Z,2022,1,0,287.042,287.042,76.02724,-148.78975,-999.0,-4.15,-999.0,no,yes,no,300534062029960,IT,USIABP,SIZRS,North
2022-10-14T02:00:57Z,2022,2,0,287.084,287.084,76.01617,-148.71514,-999.0,-4.3,-999.0,no,yes,no,300534062029960,IT,USIABP,SIZRS,North
2022-10-14T03:00:25Z,2022,3,0,287.1253,287.1253,76.00376,-148.65801,-999.0,-4.45,-999.0,no,yes,no,300534062029960,IT,USIABP,SIZRS,North
2022-10-14T04:00:28Z,2022,4,0,287.167,287.167,75.99136,-148.61747,-999.0,-4.55,-999.0,no,yes,no,300534062029960,IT,USIABP,SIZRS,North
2022-10-14T05:00:57Z,2022,5,0,287.209,287.209,75.97995,-148.58478,-999.0,-4.6,-999.0,no,yes,no,300534062029960,IT,USIABP,SIZRS,North
2022-10-14T06:00:25Z,2022,6,0,287.2503,287.2503,75.97089,-148.55616,-999.0,-4.7,-999.0,no,yes,no,300534062029960,IT,USIABP,SIZRS,North
2022-10-14T07:00:28Z,2022,7,0,287.292,287.292,75.96475,-148.52688,-999.0,-4.8,-999.0,no,yes,no,300534062029960,IT,USIABP,SIZRS,North
2022-10-14T08:00:57Z,2022,8,0,287.334,287.334,75.96172,-148.49145,-999.0,-4.8,-999.0,no,yes,no,300534062029960,IT,USIABP,SIZRS,North
2022-10-14T09:00:25Z,2022,9,0,287.3753,287.3753,75.9608,-148.4462,-999.0,-4.75,-999.0,no,yes,no,300534062029960,IT,USIABP,SIZRS,North
2022-10-14T10:00:28Z,2022,10,0,287.417,287.417,75.95931,-148.39078,-999.0,-4.65,-999.0,no,yes,no,300534062029960,IT,USIABP,SIZRS,North
2022-10-14T11:00:57Z,2022,11,0,287.459,287.459,75.95484,-148.34671,-999.0,-4.6,-999.0,no,yes,no,300534062029960,IT,USIABP,SIZRS,North
2022-10-14T12:00:25Z,2022,12,0,287.5003,287.5003,75.94797,-148.29667,-999.0,-4.55,-999.0,no,yes,no,300534062029960,IT,USIABP,SIZRS,North
2022-10-14T13:00:28Z,2022,13,0,287.542,287.542,75.93944,-148.24506,-999.0,-4.6,-999.0,no,yes,no,300534062029960,IT,USIABP,SIZRS,North
2022-10-14T14:00:57Z,2022,14,0,287.584,287.584,75.92911,-148.19759,-999.0,-4.55,-999.0,no,yes,no,300534062029960,IT,USIABP,SIZRS,North
2022-10-14T15:00:25Z,2022,15,0,287.6253,287.6253,75.91922,-148.16254,-999.0,-4.55,-999.0,no,yes,no,300534062029960,IT,USIABP,SIZRS,North
2022-10-14T16:00:28Z,2022,16,0,287.667,287.667,75.91016,-148.13977,-999.0,-4.65,-999.0,no,yes,no,300534062029960,IT,USIABP,SIZRS,North
2022-10-14T17:00:23Z,2022,17,0,287.7086,287.7086,75.90229,-148.12477,-999.0,-4.8,-999.0,no,yes,no,300534062029960,IT,USIABP,SIZRS,North
2022-10-14T18:00:51Z,2022,18,0,287.7506,287.7506,75.89599,-148.11621,-999.0,-4.85,-999.0,no,yes,no,300534062029960,IT,USIABP,SIZRS,North
2022-10-14T19:00:28Z,2022,19,0,287.792,287.792,75.8918,-148.10723,-999.0,-4.9,-999.0,no,yes,no,300534062029960,IT,USIABP,SIZRS,North
2022-10-14T20:00:23Z,2022,20,0,287.8336,287.8336,75.88989,-148.09444,-999.0,-5.05,-999.0,no,yes,no,300534062029960,IT,USIABP,SIZRS,North
2022-10-14T21:00:25Z,2022,21,0,287.8753,287.8753,75.88904,-148.07044,-999.0,-5.05,-999.0,no,yes,no,300534062029960,IT,USIABP,SIZRS,North
2022-10-14T22:00:54Z,2022,22,0,287.9173,287.9173,75.88522,-148.04175,-999.0,-4.95,-999.0,no,yes,no,300534062029960,IT,USIABP,SIZRS,North
2022-10-14T23:00:23Z,2022,23,0,287.9586,287.9586,75.88,-148.00894,-999.0,-4.95,-999.0,no,yes,no,300534062029960,IT,USIABP,SIZRS,North
2022-10-15T00:00:25Z,2022,0,0,288.0003,288.0003,75.87285,-147.97345,-999.0,-5.0,-999.0,no,yes,no,300534062029960,IT,USIABP,SIZRS,North
2022-10-15T01:00:28Z,2022,1,0,288.042,288.042,75.86419,-147.94097,-999.0,-4.95,-999.0,no,yes,no,300534062029960,IT,USIABP,SIZRS,North
2022-10-15T02:00:57Z,2022,2,0,288.084,288.084,75.85508,-147.91364,-999.0,-5.05,-999.0,no,yes,no,300534062029960,IT,USIABP,SIZRS,North
2022-10-15T03:00:25Z,2022,3,0,288.1253,288.1253,75.84695,-147.89618,-999.0,-5.2,-999.0,no,yes,no,300534062029960,IT,USIABP,SIZRS,North
2022-10-15T04:00:28Z,2022,4,0,288.167,288.167,75.84033,-147.88495,-999.0,-5.3,-999.0,no,yes,no,300534062029960,IT,USIABP,SIZRS,North
2022-10-15T05:00:57Z,2022,5,0,288.209,288.209,75.83609,-147.87816,-999.0,-5.35,-999.0,no,yes,no,300534062029960,IT,USIABP,SIZRS,North
2022-10-15T06:00:25Z,2022,6,0,288.2503,288.2503,75.83445,-147.87377,-999.0,-5.35,-999.0,no,yes,no,300534062029960,IT,USIABP,SIZRS,North
2022-10-15T07:00:28Z,2022,7,0,288.292,288.292,75.83468,-147.86521,-999.0,-5.3,-999.0,no,yes,no,300534062029960,IT,USIABP,SIZRS,North
2022-10-15T08:00:57Z,2022,8,0,288.334,288.334,75.83613,-147.85278,-999.0,-5.25,-999.0,no,yes,no,300534062029960,IT,USIABP,SIZRS,North
2022-10-15T09:00:25Z,2022,9,0,288.3753,288.3753,75.83759,-147.83564,-999.0,-5.35,-999.0,no,yes,no,300534062029960,IT,USIABP,SIZRS,North
2022-10-15T10:00:20Z,2022,10,0,288.4169,288.4169,75.83807,-147.81342,-999.0,-5.6,-999.0,no,yes,no,300534062029960,IT,USIABP,SIZRS,North
2022-10-15T11:00:57Z,2022,11,0,288.459,288.459,75.8371,-147.78429,-999.0,-5.9,-999.0,no,yes,no,300534062029960,IT,USIABP,SIZRS,North
2022-10-15T12:00:25Z,2022,12,0,288.5003,288.5003,75.83437,-147.75394,-999.0,-5.95,-999.0,no,yes,no,300534062029960,IT,USIABP,SIZRS,North
2022-10-15T13:00:28Z,2022,13,0,288.542,288.542,75.83001,-147.72489,-999.0,-5.95,-999.0,no,yes,no,300534062029960,IT,USIABP,SIZRS,North
2022-10-15T14:00:57Z,2022,14,0,288.584,288.584,75.82445,-147.69893,-999.0,-5.9,-999.0,no,yes,no,300534062029960,IT,USIABP,SIZRS,North
2022-10-15T15:00:25Z,2022,15,0,288.6253,288.6253,75.81895,-147.67841,-999.0,-5.85,-999.0,no,yes,no,300534062029960,IT,USIABP,SIZRS,North
2022-10-15T16:00:28Z,2022,16,0,288.667,288.667,75.81434,-147.66528,-999.0,-5.95,-999.0,no,yes,no,300534062029960,IT,USIABP,SIZRS,North
2022-10-15T17:00:23Z,2022,17,0,288.7086,288.7086,75.81143,-147.66142,-999.0,-6.1,-999.0,no,yes,no,300534062029960,IT,USIABP,SIZRS,North
2022-10-15T18:00:51Z,2022,18,0,288.7506,288.7506,75.81048,-147.6607,-999.0,-6.35,-999.0,no,yes,no,300534062029960,IT,USIABP,SIZRS,North
2022-10-15T19:00:28Z,2022,19,0,288.792,288.792,75.81101,-147.65959,-999.0,-6.55,-999.0,no,yes,no,300534062029960,IT,USIABP,SIZRS,North
2022-10-15T20:00:23Z,2022,20,0,288.8336,288.8336,75.81221,-147.65844,-999.0,-6.6,-999.0,no,yes,no,300534062029960,IT,USIABP,SIZRS,North
2022-10-15T21:00:25Z,2022,21,0,288.8753,288.8753,75.81383,-147.65486,-999.0,-6.5,-999.0,no,yes,no,300534062029960,IT,USIABP,SIZRS,North
2022-10-15T22:00:54Z,2022,22,0,288.9173,288.9173,75.81584,-147.64604,-999.0,-6.35,-999.0,no,yes,no,300534062029960,IT,USIABP,SIZRS,North
2022-10-15T23:00:23Z,2022,23,0,288.9586,288.9586,75.81767,-147.63467,-999.0,-6.25,-999.0,no,yes,no,300534062029960,IT,USIABP,SIZRS,North
2022-10-16T00:00:25Z,2022,0,0,289.0003,289.0003,75.81929,-147.62358,-999.0,-6.1,-999.0,no,yes,no,300534062029960,IT,USIABP,SIZRS,North
2022-10-16T01:00:28Z,2022,1,0,289.042,289.042,75.8206,-147.61612,-999.0,-5.95,-999.0,no,yes,no,300534062029960,IT,USIABP,SIZRS,North
2022-10-16T02:00:57Z,2022,2,0,289.084,289.084,75.82137,-147.61613,-999.0,-5.85,-999.0,no,yes,no,300534062029960,IT,USIABP,SIZRS,North
2022-10-16T03:00:25Z,2022,3,0,289.1253,289.1253,75.82249,-147.62484,-999.0,-5.8,-999.0,no,yes,no,300534062029960,IT,USIABP,SIZRS,North
2022-10-16T04:00:28Z,2022,4,0,289.167,289.167,75.82528,-147.64034,-999.0,-5.8,-999.0,no,yes,no,300534062029960,IT,USIABP,SIZRS,North
2022-10-16T05:00:57Z,2022,5,0,289.209,289.209,75.82955,-147.6566,-999.0,-5.75,-999.0,no,yes,no,300534062029960,IT,USIABP,SIZRS,North
2022-10-16T06:00:25Z,2022,6,0,289.2503,289.2503,75.83484,-147.66737,-999.0,-5.65,-999.0,no,yes,no,300534062029960,IT,USIABP,SIZRS,North
2022-10-16T07:00:28Z,2022,7,0,289.292,289.292,75.84107,-147.67141,-999.0,-5.5,-999.0,no,yes,no,300534062029960,IT,USIABP,SIZRS,North
2022-10-16T08:00:57Z,2022,8,0,289.334,289.334,75.84798,-147.66858,-999.0,-5.3,-999.0,no,yes,no,300534062029960,IT,USIABP,SIZRS,North
2022-10-16T09:00:25Z,2022,9,0,289.3753,289.3753,75.85398,-147.65925,-999.0,-5.1,-999.0,no,yes,no,300534062029960,IT,USIABP,SIZRS,North
2022-10-16T10:00:28Z,2022,10,0,289.417,289.417,75.85897,-147.64483,-999.0,-4.95,-999.0,no,yes,no,300534062029960,IT,USIABP,SIZRS,North
2022-10-16T11:00:57Z,2022,11,0,289.459,289.459,75.86281,-147.6269,-999.0,-4.85,-999.0,no,yes,no,300534062029960,IT,USIABP,SIZRS,North
2022-10-16T12:00:25Z,2022,12,0,289.5003,289.5003,75.86576,-147.60833,-999.0,-4.7,-999.0,no,yes,no,300534062029960,IT,USIABP,SIZRS,North
2022-10-16T13:00:28Z,2022,13,0,289.542,289.542,75.86744,-147.58985,-999.0,-4.65,-999.0,no,yes,no,300534062029960,IT,USIABP,SIZRS,North
2022-10-16T14:00:57Z,2022,14,0,289.584,289.584,75.86789,-147.57392,-999.0,-4.55,-999.0,no,yes,no,300534062029960,IT,USIABP,SIZRS,North
2022-10-16T15:00:25Z,2022,15,0,289.6253,289.6253,75.86828,-147.56195,-999.0,-4.45,-999.0,no,yes,no,300534062029960,IT,USIABP,SIZRS,North
2022-10-16T16:00:28Z,2022,16,0,289.667,289.667,75.86963,-147.55269,-999.0,-4.35,-999.0,no,yes,no,300534062029960,IT,USIABP,SIZRS,North
2022-10-16T17:00:23Z,2022,17,0,289.7086,289.7086,75.87274,-147.54409,-999.0,-4.3,-999.0,no,yes,no,300534062029960,IT,USIABP,SIZRS,North
2022-10-16T18:00:51Z,2022,18,0,289.7506,289.7506,75.87706,-147.53668,-999.0,-4.2,-999.0,no,yes,no,300534062029960,IT,USIABP,SIZRS,North
2022-10-16T19:00:28Z,2022,19,0,289.792,289.792,75.88162,-147.53119,-999.0,-4.2,-999.0,no,yes,no,300534062029960,IT,USIABP,SIZRS,North
2022-10-16T20:00:23Z,2022,20,0,289.8336,289.8336,75.88718,-147.52623,-999.0,-4.35,-999.0,no,yes,no,300534062029960,IT,USIABP,SIZRS,North
2022-10-16T21:00:25Z,2022,21,0,289.8753,289.8753,75.89352,-147.51954,-999.0,-4.55,-999.0,no,yes,no,300534062029960,IT,USIABP,SIZRS,North
2022-10-16T22:00:54Z,2022,22,0,289.9173,289.9173,75.89869,-147.51057,-999.0,-4.75,-999.0,no,yes,no,300534062029960,IT,USIABP,SIZRS,North
2022-10-16T23:00:23Z,2022,23,0,289.9586,289.9586,75.90241,-147.50232,-999.0,-4.8,-999.0,no,yes,no,300534062029960,IT,USIABP,SIZRS,North
2022-10-17T00:00:25Z,2022,0,0,290.0003,290.0003,75.9051,-147.49588,-999.0,-4.8,-999.0,no,yes,no,300534062029960,IT,USIABP,SIZRS,North
2022-10-17T01:00:28Z,2022,1,0,290.042,290.042,75.90719,-147.49337,-999.0,-5.15,-999.0,no,yes,no,300534062029960,IT,USIABP,SIZRS,North
2022-10-17T02:00:57Z,2022,2,0,290.084,290.084,75.90897,-147.49536,-999.0,-5.5,-999.0,no,yes,no,300534062029960,IT,USIABP,SIZRS,North
2022-10-17T03:00:25Z,2022,3,0,290.1253,290.1253,75.91019,-147.50191,-999.0,-5.85,-999.0,no,yes,no,300534062029960,IT,USIABP,SIZRS,North
2022-10-17T04:00:28Z,2022,4,0,290.167,290.167,75.91142,-147.51409,-999.0,-6.3,-999.0,no,yes,no,300534062029960,IT,USIABP,SIZRS,North
2022-10-17T05:00:57Z,2022,5,0,290.209,290.209,75.91362,-147.53002,-999.0,-6.65,-999.0,no,yes,no,300534062029960,IT,USIABP,SIZRS,North
2022-10-17T06:00:25Z,2022,6,0,290.2503,290.2503,75.91743,-147.54668,-999.0,-6.95,-999.0,no,yes,no,300534062029960,IT,USIABP,SIZRS,North
2022-10-17T07:00:28Z,2022,7,0,290.292,290.292,75.92294,-147.56103,-999.0,-7.2,-999.0,no,yes,no,300534062029960,IT,USIABP,SIZRS,North
2022-10-17T08:00:57Z,2022,8,0,290.334,290.334,75.92888,-147.57125,-999.0,-7.45,-999.0,no,yes,no,300534062029960,IT,USIABP,SIZRS,North
2022-10-17T09:00:25Z,2022,9,0,290.3753,290.3753,75.93423,-147.5774,-999.0,-7.7,-999.0,no,yes,no,300534062029960,IT,USIABP,SIZRS,North
2022-10-17T10:00:28Z,2022,10,0,290.417,290.417,75.93887,-147.58297,-999.0,-7.9,-999.0,no,yes,no,300534062029960,IT,USIABP,SIZRS,North
2022-10-17T11:00:23Z,2022,11,0,290.4586,290.4586,75.94293,-147.59014,-999.0,-8.1,-999.0,no,yes,no,300534062029960,IT,USIABP,SIZRS,North
2022-10-17T12:00:51Z,2022,12,0,290.5006,290.5006,75.9458,-147.59871,-999.0,-8.3,-999.0,no,yes,no,300534062029960,IT,USIABP,SIZRS,North
2022-10-17T13:00:28Z,2022,13,0,290.542,290.542,75.94752,-147.61231,-999.0,-8.45,-999.0,no,yes,no,300534062029960,IT,USIABP,SIZRS,North
2022-10-17T14:00:23Z,2022,14,0,290.5836,290.5836,75.94838,-147.63188,-999.0,-8.55,-999.0,no,yes,no,300534062029960,IT,USIABP,SIZRS,North
2022-10-17T15:00:51Z,2022,15,0,290.6256,290.6256,75.94874,-147.65579,-999.0,-8.65,-999.0,no,yes,no,300534062029960,IT,USIABP,SIZRS,North
2022-10-17T16:00:28Z,2022,16,0,290.667,290.667,75.94899,-147.68355,-999.0,-8.75,-999.0,no,yes,no,300534062029960,IT,USIABP,SIZRS,North
2022-10-17T17:00:23Z,2022,17,0,290.7086,290.7086,75.9494,-147.71549,-999.0,-8.85,-999.0,no,yes,no,300534062029960,IT,USIABP,SIZRS,North
2022-10-17T18:00:51Z,2022,18,0,290.7506,290.7506,75.95017,-147.75134,-999.0,-8.95,-999.0,no,yes,no,300534062029960,IT,USIABP,SIZRS,North
2022-10-17T19:00:28Z,2022,19,0,290.792,290.792,75.95138,-147.78779,-999.0,-9.0,-999.0,no,yes,no,300534062029960,IT,USIABP,SIZRS,North
2022-10-17T20:00:23Z,2022,20,0,290.8336,290.8336,75.95311,-147.82308,-999.0,-9.05,-999.0,no,yes,no,300534062029960,IT,USIABP,SIZRS,North
2022-10-17T21:00:25Z,2022,21,0,290.8753,290.8753,75.9551,-147.85655,-999.0,-9.1,-999.0,no,yes,no,300534062029960,IT,USIABP,SIZRS,North
2022-10-17T22:00:54Z,2022,22,0,290.9173,290.9173,75.95691,-147.88994,-999.0,-9.15,-999.0,no,yes,no,300534062029960,IT,USIABP,SIZRS,North
2022-10-17T23:00:23Z,2022,23,0,290.9586,290.9586,75.95787,-147.92188,-999.0,-9.0,-999.0,no,yes,no,300534062029960,IT,USIABP,SIZRS,North
2022-10-18T00:00:25Z,2022,0,0,291.0003,291.0003,75.95809,-147.95432,-999.0,-8.8,-999.0,no,yes,no,300534062029960,IT,USIABP,SIZRS,North
2022-10-18T01:00:28Z,2022,1,0,291.042,291.042,75.95712,-147.98517,-999.0,-8.75,-999.0,no,yes,no,300534062029960,IT,USIABP,SIZRS,North
2022-10-18T02:00:57Z,2022,2,0,291.084,291.084,75.95502,-148.01642,-999.0,-8.7,-999.0,no,yes,no,300534062029960,IT,USIABP,SIZRS,North
2022-10-18T03:00:25Z,2022,3,0,291.1253,291.1253,75.95217,-148.05039,-999.0,-8.8,-999.0,no,yes,no,300534062029960,IT,USIABP,SIZRS,North
2022-10-18T04:00:28Z,2022,4,0,291.167,291.167,75.94901,-148.08905,-999.0,-8.9,-999.0,no,yes,no,300534062029960,IT,USIABP,SIZRS,North
2022-10-18T05:00:57Z,2022,5,0,291.209,291.209,75.94637,-148.12928,-999.0,-8.9,-999.0,no,yes,no,300534062029960,IT,USIABP,SIZRS,North
2022-10-18T06:00:25Z,2022,6,0,291.2503,291.2503,75.94462,-148.17007,-999.0,-9.0,-999.0,no,yes,no,300534062029960,IT,USIABP,SIZRS,North
2022-10-18T07:00:28Z,2022,7,0,291.292,291.292,75.94366,-148.21166,-999.0,-9.05,-999.0,no,yes,no,300534062029960,IT,USIABP,SIZRS,North
2022-10-18T08:00:57Z,2022,8,0,291.334,291.334,75.94327,-148.25076,-999.0,-9.15,-999.0,no,yes,no,300534062029960,IT,USIABP,SIZRS,North
2022-10-18T09:00:25Z,2022,9,0,291.3753,291.3753,75.943,-148.28629,-999.0,-9.2,-999.0,no,yes,no,300534062029960,IT,USIABP,SIZRS,North
2022-10-18T10:00:28Z,2022,10,0,291.417,291.417,75.94242,-148.32143,-999.0,-9.3,-999.0,no,yes,no,300534062029960,IT,USIABP,SIZRS,North
2022-10-18T11:00:23Z,2022,11,0,291.4586,291.4586,75.94126,-148.35355,-999.0,-9.35,-999.0,no,yes,no,300534062029960,IT,USIABP,SIZRS,North
2022-10-18T12:00:51Z,2022,12,0,291.5006,291.5006,75.93919,-148.38261,-999.0,-9.35,-999.0,no,yes,no,300534062029960,IT,USIABP,SIZRS,North
2022-10-18T13:00:28Z,2022,13,0,291.542,291.542,75.93646,-148.40851,-999.0,-9.4,-999.0,no,yes,no,300534062029960,IT,USIABP,SIZRS,North
2022-10-18T14:00:23Z,2022,14,0,291.5836,291.5836,75.93314,-148.43387,-999.0,-9.5,-999.0,no,yes,no,300534062029960,IT,USIABP,SIZRS,North
2022-10-18T15:00:51Z,2022,15,0,291.6256,291.6256,75.92934,-148.45917,-999.0,-9.6,-999.0,no,yes,no,300534062029960,IT,USIABP,SIZRS,North
2022-10-18T16:00:28Z,2022,16,0,291.667,291.667,75.9256,-148.48492,-999.0,-9.65,-999.0,no,yes,no,300534062029960,IT,USIABP,SIZRS,North
2022-10-18T17:00:23Z,2022,17,0,291.7086,291.7086,75.92233,-148.51108,-999.0,-9.75,-999.0,no,yes,no,300534062029960,IT,USIABP,SIZRS,North
2022-10-18T18:00:51Z,2022,18,0,291.7506,291.7506,75.91961,-148.53781,-999.0,-9.75,-999.0,no,yes,no,300534062029960,IT,USIABP,SIZRS,North
2022-10-18T19:00:28Z,2022,19,0,291.792,291.792,75.91779,-148.56378,-999.0,-9.8,-999.0,no,yes,no,300534062029960,IT,USIABP,SIZRS,North
2022-10-18T20:00:23Z,2022,20,0,291.8336,291.8336,75.91685,-148.5883,-999.0,-9.85,-999.0,no,yes,no,300534062029960,IT,USIABP,SIZRS,North
2022-10-18T21:00:25Z,2022,21,0,291.8753,291.8753,75.91672,-148.6124,-999.0,-9.9,-999.0,no,yes,no,300534062029960,IT,USIABP,SIZRS,North
2022-10-18T22:00:54Z,2022,22,0,291.9173,291.9173,75.91684,-148.63391,-999.0,-9.85,-999.0,no,yes,no,300534062029960,IT,USIABP,SIZRS,North
2022-10-18T23:00:23Z,2022,23,0,291.9586,291.9586,75.91643,-148.65374,-999.0,-9.8,-999.0,no,yes,no,300534062029960,IT,USIABP,SIZRS,North
2022-10-19T00:00:25Z,2022,0,0,292.0003,292.0003,75.91571,-148.67265,-999.0,-9.65,-999.0,no,yes,no,300534062029960,IT,USIABP,SIZRS,North
2022-10-19T01:00:28Z,2022,1,0,292.042,292.042,75.91463,-148.6905,-999.0,-9.45,-999.0,no,yes,no,300534062029960,IT,USIABP,SIZRS,North
2022-10-19T02:00:57Z,2022,2,0,292.084,292.084,75.91327,-148.70871,-999.0,-9.15,-999.0,no,yes,no,300534062029960,IT,USIABP,SIZRS,North
2022-10-19T03:00:25Z,2022,3,0,292.1253,292.1253,75.912,-148.72808,-999.0,-8.9,-999.0,no,yes,no,300534062029960,IT,USIABP,SIZRS,North
2022-10-19T04:00:28Z,2022,4,0,292.167,292.167,75.9112,-148.74983,-999.0,-8.65,-999.0,no,yes,no,300534062029960,IT,USIABP,SIZRS,North
2022-10-19T05:00:23Z,2022,5,0,292.2086,292.2086,75.91111,-148.77382,-999.0,-8.45,-999.0,no,yes,no,300534062029960,IT,USIABP,SIZRS,North
2022-10-19T06:00:51Z,2022,6,0,292.2506,292.2506,75.91221,-148.79844,-999.0,-8.25,-999.0,no,yes,no,300534062029960,IT,USIABP,SIZRS,North
2022-10-19T07:00:28Z,2022,7,0,292.292,292.292,75.91418,-148.8215,-999.0,-8.05,-999.0,no,yes,no,300534062029960,IT,USIABP,SIZRS,North
2022-10-19T08:00:23Z,2022,8,0,292.3336,292.3336,75.91676,-148.84255,-999.0,-7.85,-999.0,no,yes,no,300534062029960,IT,USIABP,SIZRS,North
2022-10-19T09:00:51Z,2022,9,0,292.3756,292.3756,75.91953,-148.86143,-999.0,-7.7,-999.0,no,yes,no,300534062029960,IT,USIABP,SIZRS,North
2022-10-19T10:00:28Z,2022,10,0,292.417,292.417,75.92226,-148.87886,-999.0,-7.35,-999.0,no,yes,no,300534062029960,IT,USIABP,SIZRS,North
2022-10-19T11:00:23Z,2022,11,0,292.4586,292.4586,75.92491,-148.89568,-999.0,-7.25,-999.0,no,yes,no,300534062029960,IT,USIABP,SIZRS,North
2022-10-19T12:00:51Z,2022,12,0,292.5006,292.5006,75.92744,-148.91151,-999.0,-7.1,-999.0,no,yes,no,300534062029960,IT,USIABP,SIZRS,North
2022-10-19T13:00:28Z,2022,13,0,292.542,292.542,75.9298,-148.92533,-999.0,-6.95,-999.0,no,yes,no,300534062029960,IT,USIABP,SIZRS,North
2022-10-19T14:00:23Z,2022,14,0,292.5836,292.5836,75.93165,-148.93834,-999.0,-6.8,-999.0,no,yes,no,300534062029960,IT,USIABP,SIZRS,North
2022-10-19T15:00:25Z,2022,15,0,292.6253,292.6253,75.93337,-148.953,-999.0,-6.6,-999.0,no,yes,no,300534062029960,IT,USIABP,SIZRS,North
2022-10-19T16:00:54Z,2022,16,0,292.6673,292.6673,75.93536,-148.9702,-999.0,-6.45,-999.0,no,yes,no,300534062029960,IT,USIABP,SIZRS,North
2022-10-19T17:00:23Z,2022,17,0,292.7086,292.7086,75.9377,-148.98794,-999.0,-6.3,-999.0,no,yes,no,300534062029960,IT,USIABP,SIZRS,North
2022-10-19T18:00:25Z,2022,18,0,292.7503,292.7503,75.94051,-149.00781,-999.0,-6.15,-999.0,no,yes,no,300534062029960,IT,USIABP,SIZRS,North
2022-10-19T19:00:54Z,2022,19,0,292.7923,292.7923,75.94416,-149.02899,-999.0,-6.0,-999.0,no,yes,no,300534062029960,IT,USIABP,SIZRS,North
2022-10-19T20:00:23Z,2022,20,0,292.8336,292.8336,75.94846,-149.04892,-999.0,-5.85,-999.0,no,yes,no,300534062029960,IT,USIABP,SIZRS,North
2022-10-19T21:00:25Z,2022,21,0,292.8753,292.8753,75.95317,-149.06674,-999.0,-5.7,-999.0,no,yes,no,300534062029960,IT,USIABP,SIZRS,North
2022-10-19T22:00:54Z,2022,22,0,292.9173,292.9173,75.95787,-149.08335,-999.0,-5.6,-999.0,no,yes,no,300534062029960,IT,USIABP,SIZRS,North
2022-10-19T23:00:23Z,2022,23,0,292.9586,292.9586,75.96233,-149.09812,-999.0,-5.45,-999.0,no,yes,no,300534062029960,IT,USIABP,SIZRS,North
2022-10-20T00:00:25Z,2022,0,0,293.0003,293.0003,75.96657,-149.11237,-999.0,-5.35,-999.0,no,yes,no,300534062029960,IT,USIABP,SIZRS,North
2022-10-20T01:00:28Z,2022,1,0,293.042,293.042,75.97047,-149.12701,-999.0,-5.3,-999.0,no,yes,no,300534062029960,IT,USIABP,SIZRS,North
2022-10-20T02:00:57Z,2022,2,0,293.084,293.084,75.97416,-149.14199,-999.0,-5.3,-999.0,no,yes,no,300534062029960,IT,USIABP,SIZRS,North
2022-10-20T03:00:25Z,2022,3,0,293.1253,293.1253,75.97767,-149.15815,-999.0,-5.3,-999.0,no,yes,no,300534062029960,IT,USIABP,SIZRS,North
2022-10-20T04:00:28Z,2022,4,0,293.167,293.167,75.98149,-149.17697,-999.0,-5.3,-999.0,no,yes,no,300534062029960,IT,USIABP,SIZRS,North